[[{"header":{"parameterUnit":"m.s-1","parameterCategory":1,"la1":30.2991,"la2":30.254,"lo1":-89.0895,"lo2":-89.0444,"dy":0.0017,"dx":0.0017,"nx":28,"ny":28,"refTime":"2025-07-25T03:00:00:Z","depth":0,"parameterNumber":2,"parameterNumberName":"U-component_of_WINDS"},"data":[0,0,0,0,0,0,0,0,0,0,0,0,0,0,0,0,0,0,0,0,0,0,0,0,0,0,0,0,0,0,0,0,0,0,0,0,0,0,0,0,0,0,0,0,0,0,0,0,0,0,0,0,0,0,0,0,0,0,-1.1719,-1.1718,0,-1.1647,-1.1646,-1.1646,-1.161,-1.161,-1.161,-1.161,-1.1533,-1.1531,-1.1529,0,0,0,0,0,0,0,0,0,0,0,0,0,-1.1824,-1.1823,-1.1719,-1.1718,-1.1717,-1.1647,-1.1646,-1.1645,-1.161,-1.161,-1.161,-1.161,-1.1534,-1.1531,-1.1529,0,0,0,0,0,0,0,0,0,0,0,0,0,-1.1768,-1.1822,-1.1719,-1.1691,-1.1688,-1.1648,-1.1646,-1.1645,-1.161,-1.161,-1.161,-1.161,-1.1534,-1.1531,-1.1528,-1.151,0,0,-1.1519,-1.1518,0,0,0,0,0,0,0,0,-1.1771,-1.1764,-1.1696,-1.1693,-1.1689,-1.1637,-1.1655,-1.16,-1.161,-1.1639,-1.161,-1.161,-1.1568,-1.1562,-1.1548,-1.1506,-1.1503,-1.1519,-1.1517,-1.1516,-1.1515,0,0,0,0,0,0,0,-1.1775,-1.1767,-1.1691,-1.1695,-1.1691,-1.1682,-1.1674,-1.1645,-1.1604,-1.1637,-1.1634,-1.1626,-1.1566,-1.1551,-1.1546,-1.1502,-1.1519,-1.1516,-1.1514,-1.1513,-1.1442,-1.1442,0,0,0,0,0,0,-1.1784,-1.1771,-1.1693,-1.1689,-1.1731,-1.168,-1.1671,-1.1654,-1.1604,-1.1597,-1.1626,-1.1625,-1.1556,-1.155,-1.1543,-1.1519,-1.1516,-1.1513,-1.1511,-1.1442,-1.1442,-1.1442,0,0,0,0,0,0,-1.1786,-1.1777,-1.1696,-1.1729,-1.1718,-1.1678,-1.1659,-1.1653,-1.1638,-1.1597,-1.1589,-1.1619,-1.1556,-1.1548,-1.1519,-1.1516,-1.1511,-1.1509,-1.1442,-1.1442,-1.1442,-1.147,0,0,0,0,0,0,-1.179,-1.1778,-1.1771,-1.1729,-1.1716,-1.1673,-1.1659,-1.1651,-1.1633,-1.1631,-1.1588,-1.1581,-1.1555,-1.1524,-1.1516,-1.1512,-1.1506,-1.1442,-1.1442,-1.1442,-1.1469,-1.1471,-1.1472,0,0,0,0,0,-1.1793,-1.1781,-1.1771,-1.1762,-1.1706,-1.1673,-1.1666,-1.1638,-1.1633,-1.1626,-1.1599,-1.1582,-1.1518,-1.1521,-1.1512,-1.1507,-1.1443,-1.1442,-1.1442,-1.1468,-1.1471,-1.1472,0,0,0,0,0,0,-1.1822,-1.1775,-1.1763,-1.1737,-1.171,-1.1667,-1.1656,-1.1641,-1.1613,-1.1612,-1.1578,-1.1568,-1.1543,-1.1522,-1.1527,-1.1487,-1.1478,-1.1477,-1.1501,-1.1503,-1.1505,-1.151,-1.1504,0,0,0,0,0,-1.1826,-1.1803,-1.1763,-1.1743,-1.173,-1.1696,-1.168,-1.1662,-1.1632,-1.1619,-1.1591,-1.1561,-1.1535,-1.1518,-1.1491,-1.1466,-1.1457,-1.1458,-1.146,-1.1461,-1.146,-1.1446,-1.1447,-1.1442,-1.1442,-1.1442,0,0,-1.1832,-1.1803,-1.1791,-1.1748,-1.1725,-1.1703,-1.1686,-1.1663,-1.1645,-1.1615,-1.1587,-1.1565,-1.153,-1.1504,-1.1491,-1.1486,-1.1459,-1.1461,-1.1463,-1.146,-1.1446,-1.1447,-1.1447,-1.1442,-1.1442,-1.1442,0,0,-1.1832,-1.1808,-1.179,-1.1768,-1.1733,-1.1711,-1.1707,-1.1667,-1.1652,-1.1623,-1.1601,-1.158,-1.1534,-1.1511,-1.1493,-1.1487,-1.147,-1.1479,-1.1487,-1.1474,-1.1475,-1.1475,-1.1473,-1.1473,-1.1478,-1.1478,-1.1478,0,-1.1844,-1.181,-1.1782,-1.1761,-1.1743,-1.1717,-1.1698,-1.1677,-1.1635,-1.1623,-1.1618,-1.1562,-1.1537,-1.1505,-1.1504,-1.149,-1.1484,-1.1483,-1.1477,-1.1477,-1.1477,-1.1475,-1.1474,-1.1479,-1.1479,-1.1479,-1.1479,0,-1.1827,-1.1804,-1.1793,-1.1755,-1.1736,-1.1716,-1.1685,-1.1669,-1.1653,-1.1631,-1.1603,-1.1572,-1.1539,-1.153,-1.1513,-1.1496,-1.1494,-1.1484,-1.1475,-1.1479,-1.1477,-1.1476,-1.1481,-1.1481,-1.148,-1.148,0,0,-1.1842,-1.1791,-1.1787,-1.177,-1.1731,-1.1712,-1.1692,-1.1661,-1.1648,-1.162,-1.1602,-1.1565,-1.1556,-1.1536,-1.1516,-1.1505,-1.1503,-1.1495,-1.1494,-1.1498,-1.1484,-1.1492,-1.1492,-1.1492,-1.1492,-1.1492,-1.1487,0,-1.1837,-1.1799,-1.1775,-1.1746,-1.1725,-1.1701,-1.1683,-1.1657,-1.1636,-1.1615,-1.1592,-1.1566,-1.1556,-1.1543,-1.1531,-1.1506,-1.15,-1.1506,-1.1475,-1.1474,-1.1484,-1.149,-1.1499,-1.1495,-1.1486,-1.1486,-1.1486,0,-1.1825,-1.1801,-1.1771,-1.1736,-1.1726,-1.171,-1.1681,-1.1661,-1.1631,-1.1617,-1.1596,-1.1576,-1.1553,-1.1547,-1.1515,-1.152,-1.1506,-1.1491,-1.1491,-1.1486,-1.148,-1.1486,-1.1494,-1.1493,-1.1484,-1.1484,-1.1484,0,-1.184,-1.1799,-1.1776,-1.1762,-1.1721,-1.1711,-1.1693,-1.1663,-1.1647,-1.1621,-1.161,-1.1581,-1.1565,-1.1544,-1.1517,-1.1515,-1.1488,-1.1479,-1.1475,-1.1476,-1.147,-1.1471,-1.1475,-1.1461,-1.1461,-1.1461,-1.1461,0,-1.1837,-1.182,-1.1782,-1.1768,-1.1749,-1.1721,-1.1702,-1.1682,-1.1656,-1.1638,-1.1615,-1.1598,-1.1564,-1.1543,-1.1521,-1.1499,-1.1491,-1.1479,-1.1474,-1.1481,-1.1483,-1.1471,-1.147,-1.1461,-1.1461,-1.1461,-1.1461,0,-1.1849,-1.1823,-1.1797,-1.1761,-1.1752,-1.1739,-1.1707,-1.1693,-1.1672,-1.1649,-1.1642,-1.1609,-1.1583,-1.1555,-1.1518,-1.1504,-1.1483,-1.1475,-1.1493,-1.149,-1.1488,-1.1489,-1.1485,-1.1483,-1.1471,-1.1471,-1.1471,0,-1.1849,-1.1835,-1.1799,-1.1785,-1.1769,-1.1747,-1.1731,-1.1703,-1.1687,-1.1654,-1.1643,-1.1616,-1.1593,-1.1553,-1.1525,-1.1498,-1.1489,-1.149,-1.1484,-1.1493,-1.1489,-1.149,-1.1489,-1.1491,-1.1491,-1.1491,-1.1492,0,-1.1851,-1.184,-1.1818,-1.1792,-1.1774,-1.1751,-1.1728,-1.1719,-1.1687,-1.167,-1.1644,-1.1626,-1.1591,-1.1564,-1.1534,-1.1514,-1.1498,-1.1494,-1.1491,-1.1499,-1.151,-1.1504,-1.1497,-1.1494,-1.1493,-1.1493,-1.1493,-1.1493,-1.1857,-1.1845,-1.1817,-1.1794,-1.1774,-1.1754,-1.1739,-1.1717,-1.1695,-1.1665,-1.165,-1.1625,-1.1597,-1.1555,-1.1536,-1.1516,-1.151,-1.1507,-1.1506,-1.1505,-1.1508,-1.1514,-1.151,-1.151,-1.151,-1.151,-1.1509,0,-1.1858,-1.184,-1.1819,-1.1789,-1.1771,-1.1759,-1.1733,-1.1718,-1.1696,-1.1672,-1.1651,-1.1621,-1.1596,-1.1567,-1.154,-1.1529,-1.152,-1.1522,-1.1523,-1.1519,-1.1514,-1.1519,-1.153,-1.153,-1.153,-1.153,-1.153,-1.153,-1.1857,-1.1836,-1.1821,-1.179,-1.1772,-1.1748,-1.1734,-1.1715,-1.1696,-1.1665,-1.1644,-1.1626,-1.16,-1.1571,-1.1547,-1.154,-1.153,-1.1535,-1.1525,-1.1521,-1.1519,-1.1517,-1.1522,-1.1533,-1.1533,-1.1531,-1.1531,-1.1531]},{"header":{"parameterUnit":"m.s-1","parameterCategory":1,"la1":30.2991,"la2":30.254,"lo1":-89.0895,"lo2":-89.0444,"dy":0.0017,"dx":0.0017,"nx":28,"ny":28,"refTime":"2025-07-25T03:00:00:Z","depth":0,"parameterNumber":3,"parameterNumberName":"V-component_of_WINDS"},"data":[0,0,0,0,0,0,0,0,0,0,0,0,0,0,0,0,0,0,0,0,0,0,0,0,0,0,0,0,0,0,0,0,0,0,0,0,0,0,0,0,0,0,0,0,0,0,0,0,0,0,0,0,0,0,0,0,0,0,5.0905,5.0905,0,5.0857,5.0857,5.0856,5.0781,5.0779,5.0778,5.0777,5.0728,5.0728,5.0728,0,0,0,0,0,0,0,0,0,0,0,0,0,5.0932,5.0932,5.0905,5.0905,5.0904,5.0857,5.0857,5.0856,5.0781,5.0779,5.0778,5.0776,5.0728,5.0728,5.0728,0,0,0,0,0,0,0,0,0,0,0,0,0,5.0906,5.0932,5.0906,5.0861,5.0857,5.0858,5.0857,5.0856,5.0781,5.0779,5.0777,5.0775,5.0728,5.0728,5.0728,5.0768,0,0,5.0727,5.0727,0,0,0,0,0,0,0,0,5.0908,5.0905,5.0868,5.0864,5.0859,5.0823,5.0848,5.0826,5.0782,5.081,5.0777,5.0774,5.0761,5.0758,5.0753,5.0766,5.0764,5.0727,5.0727,5.0727,5.0727,0,0,0,0,0,0,0,5.091,5.0907,5.0886,5.0868,5.0862,5.0844,5.0838,5.0844,5.0797,5.0807,5.0802,5.0797,5.0758,5.0754,5.0752,5.0763,5.0727,5.0727,5.0727,5.0727,5.0806,5.0808,0,0,0,0,0,0,5.0918,5.0909,5.0888,5.0885,5.0879,5.0845,5.0838,5.0837,5.0797,5.0789,5.0799,5.0794,5.0755,5.0752,5.075,5.0794,5.0727,5.0727,5.0727,5.0803,5.0806,5.0808,0,0,0,0,0,0,5.0919,5.0917,5.089,5.0895,5.0891,5.0846,5.0845,5.0837,5.0832,5.0791,5.0782,5.0803,5.0753,5.075,5.0764,5.0791,5.0727,5.0727,5.0801,5.0804,5.0807,5.0884,0,0,0,0,0,0,5.092,5.0918,5.0933,5.0896,5.0891,5.0905,5.0847,5.0837,5.0832,5.0825,5.0792,5.0785,5.0751,5.0764,5.0764,5.079,5.0727,5.0798,5.0802,5.0806,5.0879,5.0889,5.0898,0,0,0,0,0,5.0921,5.0956,5.0934,5.0932,5.0908,5.0907,5.0903,5.0864,5.0835,5.0849,5.0823,5.0786,5.0789,5.0767,5.0765,5.0792,5.0796,5.0801,5.0806,5.0874,5.0887,5.0898,0,0,0,0,0,0,5.0997,5.095,5.0925,5.0949,5.0933,5.0894,5.0911,5.0879,5.087,5.0864,5.0815,5.0809,5.0829,5.0812,5.0788,5.0829,5.0787,5.0792,5.0839,5.0851,5.0861,5.0864,5.0727,0,0,0,0,0,5.1016,5.1019,5.0978,5.1004,5.0996,5.0956,5.0953,5.0925,5.0905,5.0898,5.0872,5.0855,5.0851,5.085,5.0845,5.0876,5.0867,5.0894,5.0904,5.0912,5.0916,5.0931,5.0942,5.0824,5.0824,5.0824,0,0,5.1056,5.1031,5.1036,5.1018,5.1002,5.1005,5.095,5.0956,5.0959,5.0899,5.091,5.0891,5.0868,5.0891,5.09,5.0877,5.0947,5.0918,5.0925,5.0925,5.0937,5.0948,5.0958,5.0827,5.0827,5.0826,0,0,5.1131,5.1113,5.1132,5.1116,5.1092,5.1065,5.107,5.1036,5.1021,5.1032,5.0987,5.0989,5.0985,5.097,5.0963,5.1033,5.0998,5.1032,5.1083,5.1098,5.1107,5.1115,5.114,5.1149,5.1037,5.1037,5.1037,0,5.1184,5.1188,5.1145,5.1154,5.1148,5.1094,5.1113,5.11,5.1076,5.1072,5.1048,5.1041,5.1022,5.1041,5.1058,5.1053,5.1057,5.1036,5.111,5.1117,5.1124,5.1147,5.1156,5.1042,5.1041,5.1041,5.104,0,5.1254,5.1257,5.1275,5.1253,5.1248,5.1263,5.1222,5.1223,5.1195,5.117,5.1182,5.1157,5.1146,5.1148,5.1121,5.1163,5.115,5.1119,5.1075,5.114,5.1161,5.1169,5.1048,5.1046,5.1045,5.1044,0,0,5.1374,5.1328,5.1336,5.1325,5.1295,5.1296,5.1308,5.1297,5.1298,5.1284,5.1292,5.129,5.126,5.1252,5.1222,5.1235,5.1292,5.1202,5.1201,5.1219,5.1336,5.136,5.1371,5.1269,5.1271,5.1272,5.1338,0,5.1442,5.1459,5.1422,5.1448,5.145,5.1399,5.1409,5.1392,5.137,5.1368,5.1343,5.1342,5.1304,5.1298,5.1309,5.1283,5.1315,5.1278,5.1276,5.1277,5.1283,5.1381,5.1406,5.1469,5.1346,5.1347,5.1348,0,5.1524,5.1513,5.154,5.1508,5.1507,5.1517,5.1504,5.1504,5.1483,5.1466,5.1456,5.1422,5.1431,5.139,5.1402,5.1377,5.1375,5.1362,5.1363,5.1361,5.1316,5.1381,5.1489,5.1498,5.136,5.1359,5.1358,0,5.1608,5.1601,5.1615,5.1608,5.1571,5.1579,5.1564,5.1542,5.1538,5.1526,5.1523,5.1513,5.1508,5.1501,5.1465,5.1438,5.1481,5.1436,5.1466,5.1467,5.1477,5.1477,5.1585,5.1476,5.1476,5.1476,5.1476,0,5.1688,5.1706,5.1653,5.1662,5.1681,5.1638,5.1657,5.1637,5.1618,5.1622,5.1578,5.1583,5.1535,5.1535,5.1506,5.152,5.1518,5.1504,5.1496,5.1508,5.151,5.1505,5.1499,5.1478,5.1478,5.1477,5.1477,0,5.1785,5.175,5.1763,5.1727,5.1719,5.1734,5.1704,5.1711,5.1686,5.1692,5.169,5.1651,5.1648,5.1612,5.1601,5.1582,5.1607,5.1591,5.1614,5.1609,5.164,5.1638,5.1749,5.1761,5.1646,5.1647,5.1648,0,5.1838,5.1851,5.1817,5.1816,5.1804,5.1804,5.1799,5.1758,5.1755,5.1732,5.1742,5.1736,5.1729,5.1727,5.1697,5.1689,5.1672,5.1712,5.167,5.1682,5.1672,5.1672,5.1673,5.172,5.1722,5.1723,5.1724,0,5.1935,5.1917,5.1913,5.1903,5.1899,5.1888,5.1875,5.1878,5.1832,5.1831,5.1828,5.1822,5.1812,5.1806,5.1792,5.1777,5.1743,5.1737,5.1743,5.1755,5.1768,5.1761,5.1637,5.1735,5.1734,5.1733,5.1732,5.1732,5.2011,5.202,5.1998,5.1994,5.198,5.1969,5.1974,5.1949,5.1946,5.1934,5.191,5.1911,5.1889,5.1868,5.1855,5.1855,5.1834,5.1844,5.1846,5.1849,5.1855,5.1768,5.1852,5.1852,5.1851,5.1851,5.1851,0,5.2106,5.2089,5.2086,5.207,5.2067,5.2036,5.202,5.2019,5.2021,5.2004,5.1998,5.1994,5.1989,5.1959,5.195,5.1955,5.194,5.1954,5.1953,5.195,5.1874,5.1869,5.1967,5.1967,5.1967,5.1967,5.1967,5.1967,5.2155,5.2168,5.2148,5.2154,5.2137,5.2138,5.2131,5.2121,5.2107,5.2105,5.21,5.2081,5.2059,5.2048,5.2041,5.2033,5.2031,5.2051,5.2038,5.1967,5.1956,5.1945,5.194,5.2052,5.2052,5.2114,5.2114,5.2115]}]]